Regional Weather Roundup
Issued by NWS

Home | Current Version | Previous Version | Text Only | Print | Product List | Glossary On
Versions: 1 2 3 4 5 6 7 8 9 10 11 12 13 14 15 16 17 18 19 20 21 22 23 24 25 26 27
000
ASUS45 KBOU 031110
RWRCO

WEATHER ROUNDUP FOR COLORADO
NATIONAL WEATHER SERVICE DENVER/BOULDER CO
500 AM MDT TUE AUG 03 2021

NOTE: "FAIR" INDICATES FEW OR NO CLOUDS BELOW 12000 FEET WITH NO
SIGNIFICANT WEATHER AND/OR OBSTRUCTIONS TO VISIBILITY.

COZ001>005-013-030-031-031200-
...NORTHWEST COLORADO...

CITY           SKY/WX    TMP DP  RH WIND       PRES   REMARKS
CRAIG          MOCLDY    60  58  92 CALM      30.31F
HAYDEN         LGT RAIN  59  58  96 SE7       30.35F
MEEKER         FAIR      57  56  96 CALM      30.32F
RANGELY        FAIR      61  55  82 S3        30.25S
RABBIT EARS PA FOG       46  46 100 NW6       30.58F VSB 3/4
STEAMBOAT SPGS CLOUDY    56  56 100 E3        30.35F
WALDEN         MOCLDY    55  52  92 SE3       30.43S
$$

COZ006>008-011-031200-
...WEST CENTRAL VALLEYS...

CITY           SKY/WX    TMP DP  RH WIND       PRES   REMARKS
GRAND JUNCTION FAIR      66  53  63 SW3       30.20S
MONTROSE       MOCLDY    62  51  67 SE10      30.29S
EAGLE          CLOUDY    59  54  83 NW3       30.36S
RIFLE          FAIR      62  57  83 CALM      30.27S
DELTA          FAIR      64  57  76 MISG      30.25S
NUCLA          NOT AVBL
$$

COZ017>023-064>068-031200-
...SOUTHWEST COLORADO...

CITY           SKY/WX    TMP DP  RH WIND       PRES   REMARKS
DURANGO        FAIR      54  48  80 CALM      30.31S
CORTEZ         FAIR      54  50  86 E5        30.27S
PAGOSA SPRINGS FAIR      49  49 100 CALM      30.39S
TELLURIDE      MOCLDY    50  45  81 CALM      30.50S
WOLF CREEK PAS FAIR      43  41  93 SW9       30.69F
$$

COZ009-010-012-014-032>034-037-058>063-031200-
...CENTRAL COLORADO...

CITY           SKY/WX    TMP DP  RH WIND       PRES   REMARKS
ASPEN          LGT RAIN  55  53  93 S5        30.41R
BUENA VISTA    DRIZZLE   55  50  82 W3        30.40S
COPPER MTN     DRIZZLE   46  43  87 NW5       30.67S
BERTHOUD PASS  HAZE      39  28  65 NW7       30.69F VSB<1/4
DAKOTA HILL    CLOUDY    46  41  81 W10       30.58F
COTTONWOOD PAS CLOUDY    54  46  76 NW3       30.52S
GUNNISON       FAIR      53  51  93 NW3       30.41S
GRANBY         CLOUDY    53  53  98 CALM      30.44F
KREMMLING      DRIZZLE   55  52  88 CALM      30.41R
LEADVILLE      RAIN      47  46  97 CALM      30.52S FOG
MONARCH PASS   CLOUDY    45  41  87 W9        30.75F
SALIDA         CLOUDY    59  55  88 CALM      30.45S
SUNLIGHT       MOCLDY    46  41  81 N5        30.62S
WILKERSON PASS CLOUDY    46  41  81 NW8       30.63S
$$

COZ069>075-031200-
...SAN LUIS VALLEY/SANGRE DE CRISTO MOUNTAINS...

CITY           SKY/WX    TMP DP  RH WIND       PRES   REMARKS
ALAMOSA        FAIR      46  46 100 SE5       30.38S FOG
DEL NORTE      FAIR      51  47  87 W10       30.42S
LA VETA PASS   CLOUDY    46  45  93 W12       30.51S
SAGUACHE       MOCLDY    54  52  94 NW6       30.40S
$$

COZ035-036-038>040-031200-
...NORTHERN COLORADO FRONT RANGE...

CITY           SKY/WX    TMP DP  RH WIND       PRES   REMARKS
DENVER INTL AP MOCLDY    70  50  49 W7        30.17F
AURORA         MOCLDY    65  54  69 S6        30.20F
WATKINS        NOT AVBL
ERIE           CLOUDY    64  59  82 CALM      30.17S
BOULDER        FAIR      68  52  56 E5        30.17S
CENTENNIAL     CLOUDY    66  51  58 SW5       30.21F
BROOMFIELD     CLOUDY    68  52  56 CALM      30.20S
FORT COLLINS   CLOUDY    66  57  72 CALM      30.17S
LONGMONT       MOCLDY    68  54  60 CALM      30.18R
$$

COZ041-046-047-076>085-087-088-031200-
...PIKES PEAK/PALMER DIVIDE AND SOUTHERN FOOTHILLS...

CITY           SKY/WX    TMP DP  RH WIND       PRES   REMARKS
COLO. SPRINGS  MOCLDY    63  53  70 N6        30.25F
A. F. ACADEMY  MOCLDY    60  53  78 N6        30.25F
SCHRIEVER AFB  NOT AVBL
CHEYENNE MTN     N/A     68  48  48 W7        30.23R
ELLICOTT       CLOUDY    61  49  65 E8        30.25S
FALCON         FAIR      60  50  69 NW6       30.30S
FORT CARSON    CLOUDY    63  53  71 NW6       30.20S
LIMON          FAIR      53  47  79 CALM      30.21S
MONUMENT HILL  FAIR      57  50  77 SW7       30.31F
CANON CITY     CLOUDY    70  55  60 W12       30.19S
WALSENBURG     NOT AVBL
TRINIDAD       FAIR      62  50  64 W9        30.22F
$$

COZ042>045-048>051-090-091-031200-
...NORTHEAST COLORADO...

CITY           SKY/WX    TMP DP  RH WIND       PRES   REMARKS
GREELEY        MOCLDY    64  55  72 N5        30.15S
AKRON          FAIR      63  50  62 S8        30.15S
BURLINGTON     FAIR      64  49  57 SW12      30.16S
WRAY           FAIR      59  50  72 W7        30.12S
YUMA           FAIR      57  52  82 S8        30.13S
STERLING       FAIR      61  48  63 MISG      30.10F
HOLYOKE        FAIR      61  54  77 SW8       30.12F
FORT MORGAN    FAIR      61  49  64 SE5       30.14S
$$

COZ086-089-092>099-031200-
...SOUTHEAST COLORADO...

CITY           SKY/WX    TMP DP  RH WIND       PRES   REMARKS
PUEBLO         MOCLDY    64  58  80 NE3       30.15S
LA JUNTA       FAIR      70  54  56 S7        30.12F
LAMAR          FAIR      66  49  54 S13       30.11S
SPRINGFIELD      N/A     63  49  60 S13       30.18F
$$



USA.gov is the U.S. government's official web portal to all federal, state and local government web resources and services.